Time,TemperatureF,DewpointF,PressureIn,WindDirection,WindDirectionDegrees,WindSpeedMPH,WindSpeedGustMPH,Humidity,HourlyPrecipIn,Conditions,Clouds,dailyrainin,SolarRadiationWatts/m^2,SoftwareType,DateUTC
2013-01-07 00:00:00,66.0,65.4,30.13,NNW,339,6.0,7.0,98,0.00,,,0.39,0,Wunderground v.1.15,2013-01-07 05:00:00,
2013-01-07 00:04:00,66.0,65.4,30.13,NNW,341,5.0,7.0,98,0.00,,,0.39,0,Wunderground v.1.15,2013-01-07 05:04:00,
2013-01-07 00:06:00,66.0,65.4,30.14,NNW,329,5.0,7.0,98,0.00,,,0.39,0,Wunderground v.1.15,2013-01-07 05:06:00,
2013-01-07 00:12:00,65.9,65.3,30.14,North,360,5.0,5.0,98,0.00,,,0.00,0,Wunderground v.1.15,2013-01-07 05:12:00,
2013-01-07 00:18:00,66.0,65.4,30.14,NNW,333,3.0,5.0,98,0.00,,,0.00,0,Wunderground v.1.15,2013-01-07 05:18:00,
2013-01-07 00:24:00,66.0,65.4,30.14,North,355,3.0,6.0,98,0.00,,,0.00,0,Wunderground v.1.15,2013-01-07 05:24:00,
2013-01-07 00:30:00,66.1,65.5,30.14,North,355,5.0,5.0,98,0.00,,,0.00,0,Wunderground v.1.15,2013-01-07 05:30:00,
2013-01-07 00:36:00,66.1,65.5,30.14,NNW,330,5.0,6.0,98,0.00,,,0.00,0,Wunderground v.1.15,2013-01-07 05:36:00,
2013-01-07 00:42:00,66.1,65.5,30.14,North,355,5.0,13.0,98,0.00,,,0.00,0,Wunderground v.1.15,2013-01-07 05:42:00,
2013-01-07 00:48:00,66.1,65.5,30.14,North,355,6.0,13.0,98,0.00,,,0.00,0,Wunderground v.1.15,2013-01-07 05:48:00,
2013-01-07 00:54:00,66.1,65.5,30.14,NNE,25,6.0,8.0,98,0.00,,,0.00,0,Wunderground v.1.15,2013-01-07 05:54:00,
2013-01-07 01:00:00,66.1,65.5,30.14,NNW,336,6.0,10.0,98,0.00,,,0.00,0,Wunderground v.1.15,2013-01-07 06:00:00,
2013-01-07 01:06:00,66.0,65.4,30.14,NNW,344,7.0,10.0,98,0.00,,,0.00,0,Wunderground v.1.15,2013-01-07 06:06:00,
2013-01-07 01:12:00,66.0,65.4,30.14,NNW,344,7.0,9.0,98,0.00,,,0.00,0,Wunderground v.1.15,2013-01-07 06:12:00,
2013-01-07 01:18:00,65.9,65.3,30.14,NNW,335,7.0,11.0,98,0.00,,,0.00,0,Wunderground v.1.15,2013-01-07 06:18:00,
2013-01-07 01:24:00,65.9,65.3,30.14,North,355,8.0,8.0,98,0.00,,,0.00,0,Wunderground v.1.15,2013-01-07 06:24:00,
2013-01-07 01:30:00,65.9,65.3,30.14,NNE,12,7.0,7.0,98,0.00,,,0.00,0,Wunderground v.1.15,2013-01-07 06:30:00,
2013-01-07 01:36:00,65.9,65.3,30.14,NNW,343,7.0,12.0,98,0.00,,,0.00,0,Wunderground v.1.15,2013-01-07 06:36:00,
2013-01-07 01:42:00,65.9,65.3,30.15,North,355,5.0,6.0,98,0.00,,,0.00,0,Wunderground v.1.15,2013-01-07 06:42:00,
2013-01-07 01:48:00,65.9,65.3,30.15,North,5,5.0,7.0,98,0.00,,,0.00,0,Wunderground v.1.15,2013-01-07 06:48:00,
2013-01-07 01:54:00,65.8,65.2,30.15,North,355,4.0,7.0,98,0.00,,,0.00,0,Wunderground v.1.15,2013-01-07 06:54:00,
2013-01-07 02:00:00,65.8,65.2,30.14,NNW,333,4.0,4.0,98,0.00,,,0.00,0,Wunderground v.1.15,2013-01-07 07:00:00,
2013-01-07 02:06:00,65.8,64.9,30.14,North,349,4.0,10.0,97,0.00,,,0.00,0,Wunderground v.1.15,2013-01-07 07:06:00,
2013-01-07 02:12:00,65.6,64.7,30.14,North,360,5.0,6.0,97,0.00,,,0.00,0,Wunderground v.1.15,2013-01-07 07:12:00,
2013-01-07 02:18:00,65.6,64.7,30.15,North,360,5.0,6.0,97,0.00,,,0.00,0,Wunderground v.1.15,2013-01-07 07:18:00,
2013-01-07 02:24:00,65.5,64.6,30.15,NNW,343,6.0,11.0,97,0.00,,,0.00,0,Wunderground v.1.15,2013-01-07 07:24:00,
2013-01-07 02:30:00,65.4,64.5,30.15,NW,308,5.0,5.0,97,0.00,,,0.00,0,Wunderground v.1.15,2013-01-07 07:30:00,
2013-01-07 02:36:00,65.3,64.4,30.14,NNW,334,6.0,6.0,97,0.00,,,0.00,0,Wunderground v.1.15,2013-01-07 07:36:00,
2013-01-07 02:42:00,65.2,64.3,30.15,NNW,333,5.0,6.0,97,0.00,,,0.00,0,Wunderground v.1.15,2013-01-07 07:42:00,
2013-01-07 02:48:00,65.1,64.2,30.15,NNW,336,5.0,6.0,97,0.00,,,0.00,0,Wunderground v.1.15,2013-01-07 07:48:00,
2013-01-07 02:54:00,65.1,64.2,30.14,NNW,339,4.0,5.0,97,0.00,,,0.00,0,Wunderground v.1.15,2013-01-07 07:54:00,
2013-01-07 03:00:00,64.9,64.0,30.15,NNW,337,4.0,4.0,97,0.00,,,0.00,0,Wunderground v.1.15,2013-01-07 08:00:00,
2013-01-07 03:06:00,64.8,63.9,30.15,NNE,13,4.0,4.0,97,0.00,,,0.00,0,Wunderground v.1.15,2013-01-07 08:06:00,
2013-01-07 03:12:00,64.7,64.1,30.15,NNW,346,3.0,3.0,98,0.00,,,0.00,0,Wunderground v.1.15,2013-01-07 08:12:00,
2013-01-07 03:18:00,64.7,64.1,30.15,North,355,3.0,3.0,98,0.00,,,0.00,0,Wunderground v.1.15,2013-01-07 08:18:00,
2013-01-07 03:24:00,64.7,64.1,30.15,North,355,2.0,3.0,98,0.00,,,0.00,0,Wunderground v.1.15,2013-01-07 08:24:00,
2013-01-07 03:30:00,64.7,64.1,30.15,NNW,348,1.0,3.0,98,0.00,,,0.00,0,Wunderground v.1.15,2013-01-07 08:30:00,
2013-01-07 03:36:00,64.7,64.1,30.15,NNW,340,2.0,5.0,98,0.00,,,0.00,0,Wunderground v.1.15,2013-01-07 08:36:00,
2013-01-07 03:42:00,64.7,64.1,30.15,North,360,4.0,4.0,98,0.00,,,0.00,0,Wunderground v.1.15,2013-01-07 08:42:00,
2013-01-07 03:48:00,64.7,64.1,30.14,NNW,339,4.0,6.0,98,0.00,,,0.00,0,Wunderground v.1.15,2013-01-07 08:48:00,
2013-01-07 03:54:00,64.7,64.1,30.13,NNW,347,5.0,7.0,98,0.00,,,0.00,0,Wunderground v.1.15,2013-01-07 08:54:00,
2013-01-07 04:00:00,64.7,64.1,30.13,North,349,4.0,4.0,98,0.00,,,0.00,0,Wunderground v.1.15,2013-01-07 09:00:00,
2013-01-07 04:06:00,64.7,64.1,30.13,NNE,32,4.0,6.0,98,0.00,,,0.00,0,Wunderground v.1.15,2013-01-07 09:06:00,
2013-01-07 04:12:00,64.7,64.1,30.13,North,351,4.0,4.0,98,0.00,,,0.00,0,Wunderground v.1.15,2013-01-07 09:12:00,
2013-01-07 04:18:00,64.8,64.2,30.14,North,360,3.0,5.0,98,0.00,,,0.00,0,Wunderground v.1.15,2013-01-07 09:18:00,
2013-01-07 04:24:00,64.9,64.3,30.13,NNW,338,3.0,5.0,98,0.00,,,0.00,0,Wunderground v.1.15,2013-01-07 09:24:00,
2013-01-07 04:30:00,65.0,64.1,30.14,NNW,329,5.0,5.0,97,0.00,,,0.00,0,Wunderground v.1.15,2013-01-07 09:30:00,
2013-01-07 04:36:00,65.1,64.2,30.14,NNW,340,4.0,6.0,97,0.00,,,0.00,0,Wunderground v.1.15,2013-01-07 09:36:00,
2013-01-07 04:42:00,65.2,64.3,30.14,North,355,3.0,7.0,97,0.00,,,0.00,0,Wunderground v.1.15,2013-01-07 09:42:00,
2013-01-07 04:48:00,65.3,64.4,30.14,North,360,4.0,7.0,97,0.00,,,0.00,0,Wunderground v.1.15,2013-01-07 09:48:00,
2013-01-07 04:54:00,65.3,64.4,30.14,NNW,340,5.0,5.0,97,0.00,,,0.00,0,Wunderground v.1.15,2013-01-07 09:54:00,
2013-01-07 05:00:00,65.4,64.5,30.14,North,5,6.0,6.0,97,0.00,,,0.00,0,Wunderground v.1.15,2013-01-07 10:00:00,
2013-01-07 05:06:00,65.5,64.6,30.14,North,355,6.0,7.0,97,0.00,,,0.00,0,Wunderground v.1.15,2013-01-07 10:06:00,
2013-01-07 05:12:00,65.4,64.5,30.14,North,355,6.0,11.0,97,0.00,,,0.00,0,Wunderground v.1.15,2013-01-07 10:12:00,
2013-01-07 05:18:00,65.4,64.2,30.14,NNW,340,5.0,11.0,96,0.00,,,0.00,0,Wunderground v.1.15,2013-01-07 10:18:00,
2013-01-07 05:24:00,65.4,64.2,30.14,North,360,5.0,7.0,96,0.00,,,0.00,0,Wunderground v.1.15,2013-01-07 10:24:00,
2013-01-07 05:30:00,65.3,64.1,30.14,NNW,335,7.0,7.0,96,0.00,,,0.00,0,Wunderground v.1.15,2013-01-07 10:30:00,
2013-01-07 05:36:00,65.4,64.2,30.15,NNE,17,8.0,13.0,96,0.00,,,0.00,0,Wunderground v.1.15,2013-01-07 10:36:00,
2013-01-07 05:42:00,65.3,64.1,30.15,North,351,8.0,8.0,96,0.00,,,0.00,0,Wunderground v.1.15,2013-01-07 10:42:00,
2013-01-07 05:48:00,65.3,64.1,30.16,North,355,7.0,8.0,96,0.00,,,0.00,0,Wunderground v.1.15,2013-01-07 10:48:00,
2013-01-07 05:54:00,65.2,64.0,30.16,North,360,5.0,7.0,96,0.00,,,0.00,0,Wunderground v.1.15,2013-01-07 10:54:00,
2013-01-07 06:00:00,64.9,63.4,30.16,North,360,7.0,8.0,95,0.00,,,0.00,0,Wunderground v.1.15,2013-01-07 11:00:00,
2013-01-07 06:06:00,64.7,63.2,30.16,NW,325,8.0,8.0,95,0.00,,,0.00,0,Wunderground v.1.15,2013-01-07 11:06:00,
2013-01-07 06:12:00,64.5,63.0,30.16,NNW,348,8.0,9.0,95,0.00,,,0.00,0,Wunderground v.1.15,2013-01-07 11:12:00,
2013-01-07 06:18:00,64.4,63.2,30.16,NW,325,8.0,9.0,96,0.00,,,0.00,0,Wunderground v.1.15,2013-01-07 11:18:00,
2013-01-07 06:24:00,64.3,63.1,30.17,NNW,347,7.0,9.0,96,0.00,,,0.00,0,Wunderground v.1.15,2013-01-07 11:24:00,
2013-01-07 06:30:00,64.3,63.1,30.17,NNW,342,8.0,14.0,96,0.00,,,0.00,0,Wunderground v.1.15,2013-01-07 11:30:00,
2013-01-07 06:36:00,64.1,62.6,30.17,NNW,331,9.0,14.0,95,0.00,,,0.00,0,Wunderground v.1.15,2013-01-07 11:36:00,
2013-01-07 06:42:00,64.0,62.5,30.17,NNW,340,8.0,15.0,95,0.00,,,0.00,0,Wunderground v.1.15,2013-01-07 11:42:00,
2013-01-07 06:48:00,64.0,62.2,30.17,NNE,12,7.0,15.0,94,0.00,,,0.00,0,Wunderground v.1.15,2013-01-07 11:48:00,
2013-01-07 06:54:00,63.9,61.8,30.17,NNW,335,7.0,12.0,93,0.00,,,0.00,0,Wunderground v.1.15,2013-01-07 11:54:00,
2013-01-07 07:00:00,63.9,61.5,30.18,North,11,8.0,11.0,92,0.00,,,0.00,0,Wunderground v.1.15,2013-01-07 12:00:00,
2013-01-07 07:06:00,63.8,61.4,30.18,WNW,296,8.0,13.0,92,0.00,,,0.00,0,Wunderground v.1.15,2013-01-07 12:06:00,
2013-01-07 07:12:00,63.6,60.9,30.18,NNW,342,7.0,7.0,91,0.00,,,0.00,0,Wunderground v.1.15,2013-01-07 12:12:00,
2013-01-07 07:18:00,63.6,60.9,30.19,NNW,348,6.0,9.0,91,0.00,,,0.00,0,Wunderground v.1.15,2013-01-07 12:18:00,
2013-01-07 07:24:00,63.6,60.9,30.19,NNW,336,7.0,11.0,91,0.00,,,0.00,5,Wunderground v.1.15,2013-01-07 12:24:00,
2013-01-07 07:30:00,63.5,60.5,30.19,North,355,7.0,12.0,90,0.00,,,0.00,7,Wunderground v.1.15,2013-01-07 12:30:00,
2013-01-07 07:36:00,63.5,60.5,30.19,NNE,13,6.0,12.0,90,0.00,,,0.00,18,Wunderground v.1.15,2013-01-07 12:36:00,
2013-01-07 07:42:00,63.5,60.5,30.19,NNW,337,6.0,7.0,90,0.00,,,0.00,35,Wunderground v.1.15,2013-01-07 12:42:00,
2013-01-07 07:48:00,63.6,60.9,30.19,NNE,22,8.0,13.0,91,0.00,,,0.00,39,Wunderground v.1.15,2013-01-07 12:48:00,
2013-01-07 07:54:00,63.8,60.8,30.19,NNW,342,8.0,8.0,90,0.00,,,0.00,51,Wunderground v.1.15,2013-01-07 12:54:00,
2013-01-07 08:00:00,64.0,61.0,30.19,North,355,8.0,14.0,90,0.00,,,0.00,62,Wunderground v.1.15,2013-01-07 13:00:00,
2013-01-07 08:06:00,64.2,61.2,30.19,NNW,345,8.0,14.0,90,0.00,,,0.00,81,Wunderground v.1.15,2013-01-07 13:06:00,
2013-01-07 08:12:00,64.5,61.5,30.19,North,355,7.0,8.0,90,0.00,,,0.00,40,Wunderground v.1.15,2013-01-07 13:12:00,
2013-01-07 08:18:00,64.5,61.2,30.20,NW,323,7.0,11.0,89,0.00,,,0.00,76,Wunderground v.1.15,2013-01-07 13:18:00,
2013-01-07 08:24:00,64.4,61.1,30.20,NW,315,9.0,15.0,89,0.00,,,0.00,111,Wunderground v.1.15,2013-01-07 13:24:00,
2013-01-07 08:30:00,64.5,61.2,30.20,NNE,16,8.0,8.0,89,0.00,,,0.00,123,Wunderground v.1.15,2013-01-07 13:30:00,
2013-01-07 08:36:00,64.7,61.4,30.20,North,350,7.0,15.0,89,0.00,,,0.00,135,Wunderground v.1.15,2013-01-07 13:36:00,
2013-01-07 08:42:00,64.8,61.5,30.21,North,355,7.0,8.0,89,0.00,,,0.00,128,Wunderground v.1.15,2013-01-07 13:42:00,
2013-01-07 08:48:00,65.1,61.5,30.21,NW,304,7.0,11.0,88,0.00,,,0.00,167,Wunderground v.1.15,2013-01-07 13:48:00,
2013-01-07 08:54:00,65.3,61.7,30.21,North,350,7.0,11.0,88,0.00,,,0.00,294,Wunderground v.1.15,2013-01-07 13:54:00,
2013-01-07 09:00:00,65.9,61.6,30.22,NNW,338,7.0,12.0,86,0.00,,,0.00,311,Wunderground v.1.15,2013-01-07 14:00:00,
2013-01-07 09:06:00,66.1,61.5,30.22,North,350,8.0,16.0,85,0.00,,,0.00,339,Wunderground v.1.15,2013-01-07 14:06:00,
2013-01-07 09:12:00,66.2,61.6,30.22,North,360,8.0,13.0,85,0.00,,,0.00,353,Wunderground v.1.15,2013-01-07 14:12:00,
2013-01-07 09:18:00,66.6,61.9,30.22,North,350,8.0,15.0,85,0.00,,,0.00,411,Wunderground v.1.15,2013-01-07 14:18:00,
2013-01-07 09:24:00,67.1,62.1,30.22,NNW,338,8.0,9.0,84,0.00,,,0.00,425,Wunderground v.1.15,2013-01-07 14:24:00,
2013-01-07 09:30:00,67.4,62.1,30.22,North,5,8.0,14.0,83,0.00,,,0.00,381,Wunderground v.1.15,2013-01-07 14:30:00,
2013-01-07 09:36:00,67.6,62.6,30.22,NNW,344,8.0,14.0,84,0.00,,,0.00,541,Wunderground v.1.15,2013-01-07 14:36:00,
2013-01-07 09:42:00,68.3,62.9,30.22,North,360,7.0,12.0,83,0.00,,,0.00,541,Wunderground v.1.15,2013-01-07 14:42:00,
2013-01-07 09:48:00,68.5,62.4,30.23,NNE,15,7.0,12.0,81,0.00,,,0.00,320,Wunderground v.1.15,2013-01-07 14:48:00,
2013-01-07 09:54:00,68.0,62.3,30.23,North,355,8.0,18.0,82,0.00,,,0.00,290,Wunderground v.1.15,2013-01-07 14:54:00,
2013-01-07 10:00:00,68.5,62.4,30.23,North,355,8.0,11.0,81,0.00,,,0.00,471,Wunderground v.1.15,2013-01-07 15:00:00,
2013-01-07 10:06:00,68.6,62.2,30.23,North,10,8.0,11.0,80,0.00,,,0.00,513,Wunderground v.1.15,2013-01-07 15:06:00,
2013-01-07 10:12:00,68.9,62.8,30.22,North,10,7.0,7.0,81,0.00,,,0.00,497,Wunderground v.1.15,2013-01-07 15:12:00,
2013-01-07 10:18:00,69.0,62.6,30.22,North,360,7.0,7.0,80,0.00,,,0.00,455,Wunderground v.1.15,2013-01-07 15:18:00,
2013-01-07 10:24:00,68.8,62.7,30.22,NNE,24,8.0,14.0,81,0.00,,,0.00,471,Wunderground v.1.15,2013-01-07 15:24:00,
2013-01-07 10:30:00,69.3,63.2,30.22,NNW,335,8.0,10.0,81,0.00,,,0.00,504,Wunderground v.1.15,2013-01-07 15:30:00,
2013-01-07 10:36:00,69.0,62.9,30.22,NNE,15,9.0,12.0,81,0.00,,,0.00,515,Wunderground v.1.15,2013-01-07 15:36:00,
2013-01-07 10:42:00,69.3,63.2,30.22,North,360,8.0,12.0,81,0.00,,,0.00,513,Wunderground v.1.15,2013-01-07 15:42:00,
2013-01-07 10:48:00,69.6,63.2,30.22,North,5,7.0,12.0,80,0.00,,,0.00,522,Wunderground v.1.15,2013-01-07 15:48:00,
2013-01-07 10:54:00,69.1,62.7,30.22,NNW,337,8.0,9.0,80,0.00,,,0.00,508,Wunderground v.1.15,2013-01-07 15:54:00,
2013-01-07 11:00:00,69.4,63.0,30.21,NE,36,8.0,12.0,80,0.00,,,0.00,601,Wunderground v.1.15,2013-01-07 16:00:00,
2013-01-07 11:06:00,69.7,63.3,30.21,NNE,28,8.0,13.0,80,0.00,,,0.00,578,Wunderground v.1.15,2013-01-07 16:06:00,
2013-01-07 11:12:00,69.8,63.3,30.21,North,355,8.0,12.0,80,0.00,,,0.00,698,Wunderground v.1.15,2013-01-07 16:12:00,
2013-01-07 11:18:00,69.7,62.9,30.21,North,5,9.0,14.0,79,0.00,,,0.00,387,Wunderground v.1.15,2013-01-07 16:18:00,
2013-01-07 11:24:00,69.9,63.8,30.21,NNE,29,9.0,12.0,81,0.00,,,0.00,357,Wunderground v.1.15,2013-01-07 16:24:00,
2013-01-07 11:30:00,69.5,63.1,30.21,NE,36,8.0,9.0,80,0.00,,,0.00,353,Wunderground v.1.15,2013-01-07 16:30:00,
2013-01-07 11:36:00,69.4,63.3,30.21,NNW,336,8.0,10.0,81,0.00,,,0.00,367,Wunderground v.1.15,2013-01-07 16:36:00,
2013-01-07 11:42:00,69.5,63.4,30.20,NW,324,8.0,9.0,81,0.00,,,0.00,288,Wunderground v.1.15,2013-01-07 16:42:00,
2013-01-07 11:48:00,69.5,63.4,30.20,North,5,8.0,11.0,81,0.00,,,0.00,316,Wunderground v.1.15,2013-01-07 16:48:00,
2013-01-07 11:54:00,69.6,63.5,30.19,North,355,8.0,11.0,81,0.00,,,0.00,316,Wunderground v.1.15,2013-01-07 16:54:00,
2013-01-07 12:00:00,69.8,64.1,30.19,NNE,14,8.0,14.0,82,0.00,,,0.00,301,Wunderground v.1.15,2013-01-07 17:00:00,
2013-01-07 12:06:00,69.6,63.5,30.19,NNE,13,9.0,14.0,81,0.00,,,0.00,304,Wunderground v.1.15,2013-01-07 17:06:00,
2013-01-07 12:12:00,69.8,64.1,30.19,NE,44,9.0,16.0,82,0.00,,,0.00,283,Wunderground v.1.15,2013-01-07 17:12:00,
2013-01-07 12:18:00,69.6,63.9,30.18,North,355,8.0,16.0,82,0.00,,,0.00,279,Wunderground v.1.15,2013-01-07 17:18:00,
2013-01-07 12:24:00,69.8,64.1,30.17,NNE,21,8.0,11.0,82,0.00,,,0.00,278,Wunderground v.1.15,2013-01-07 17:24:00,
2013-01-07 12:30:00,69.9,64.5,30.17,NNE,19,8.0,9.0,83,0.00,,,0.00,253,Wunderground v.1.15,2013-01-07 17:30:00,
2013-01-07 12:36:00,69.8,64.4,30.17,NNE,30,8.0,9.0,83,0.00,,,0.00,320,Wunderground v.1.15,2013-01-07 17:36:00,
2013-01-07 12:42:00,69.9,64.5,30.17,NNE,28,9.0,12.0,83,0.00,,,0.00,318,Wunderground v.1.15,2013-01-07 17:42:00,
2013-01-07 12:48:00,70.1,64.7,30.16,North,9,9.0,14.0,83,0.00,,,0.00,346,Wunderground v.1.15,2013-01-07 17:48:00,
2013-01-07 12:54:00,70.3,64.9,30.16,NNE,30,8.0,12.0,83,0.00,,,0.00,413,Wunderground v.1.15,2013-01-07 17:54:00,
2013-01-07 13:00:00,70.4,65.0,30.16,NNE,13,9.0,9.0,83,0.00,,,0.00,350,Wunderground v.1.15,2013-01-07 18:00:00,
2013-01-07 13:06:00,70.5,65.1,30.16,NNE,24,8.0,9.0,83,0.00,,,0.00,306,Wunderground v.1.15,2013-01-07 18:06:00,
2013-01-07 13:12:00,70.5,65.4,30.16,NE,38,7.0,8.0,84,0.00,,,0.00,246,Wunderground v.1.15,2013-01-07 18:12:00,
2013-01-07 13:18:00,70.7,65.6,30.16,NE,34,7.0,8.0,84,0.00,,,0.00,241,Wunderground v.1.15,2013-01-07 18:18:00,
2013-01-07 13:24:00,70.6,65.5,30.16,NNE,28,7.0,9.0,84,0.00,,,0.00,183,Wunderground v.1.15,2013-01-07 18:24:00,
2013-01-07 13:30:00,70.5,65.4,30.16,NNE,26,7.0,10.0,84,0.00,,,0.00,139,Wunderground v.1.15,2013-01-07 18:30:00,
2013-01-07 13:36:00,70.4,65.7,30.15,NNE,26,7.0,10.0,85,0.00,,,0.00,132,Wunderground v.1.15,2013-01-07 18:36:00,
2013-01-07 13:42:00,70.3,65.6,30.15,NNE,24,6.0,8.0,85,0.00,,,0.00,97,Wunderground v.1.15,2013-01-07 18:42:00,
2013-01-07 13:48:00,70.1,65.4,30.15,NW,318,6.0,12.0,85,0.00,,,0.00,114,Wunderground v.1.15,2013-01-07 18:48:00,
2013-01-07 13:54:00,70.0,65.3,30.15,NNE,22,7.0,7.0,85,0.00,,,0.00,109,Wunderground v.1.15,2013-01-07 18:54:00,
2013-01-07 14:00:00,70.0,65.3,30.15,NE,34,6.0,10.0,85,0.00,,,0.00,125,Wunderground v.1.15,2013-01-07 19:00:00,
2013-01-07 14:06:00,69.9,64.8,30.15,North,9,6.0,10.0,84,0.00,,,0.00,111,Wunderground v.1.15,2013-01-07 19:06:00,
2013-01-07 14:12:00,69.8,65.1,30.15,North,355,6.0,9.0,85,0.00,,,0.00,118,Wunderground v.1.15,2013-01-07 19:12:00,
2013-01-07 14:18:00,69.7,64.3,30.15,North,11,7.0,9.0,83,0.00,,,0.00,97,Wunderground v.1.15,2013-01-07 19:18:00,
2013-01-07 14:24:00,69.7,64.3,30.15,North,5,7.0,12.0,83,0.00,,,0.00,83,Wunderground v.1.15,2013-01-07 19:24:00,
2013-01-07 14:30:00,69.7,64.3,30.15,North,355,7.0,7.0,83,0.00,,,0.00,81,Wunderground v.1.15,2013-01-07 19:30:00,
2013-01-07 14:36:00,69.7,64.3,30.15,NNE,15,7.0,12.0,83,0.00,,,0.00,83,Wunderground v.1.15,2013-01-07 19:36:00,
2013-01-07 14:42:00,69.7,64.3,30.15,NNE,30,7.0,9.0,83,0.00,,,0.00,109,Wunderground v.1.15,2013-01-07 19:42:00,
2013-01-07 14:48:00,69.8,64.4,30.15,North,5,6.0,9.0,83,0.00,,,0.00,91,Wunderground v.1.15,2013-01-07 19:48:00,
2013-01-07 14:54:00,69.8,64.4,30.15,North,5,5.0,6.0,83,0.00,,,0.00,97,Wunderground v.1.15,2013-01-07 19:54:00,
2013-01-07 15:00:00,69.8,64.4,30.16,NNE,15,6.0,6.0,83,0.00,,,0.00,46,Wunderground v.1.15,2013-01-07 20:00:00,
2013-01-07 15:06:00,69.7,64.3,30.16,NNE,24,7.0,9.0,83,0.00,,,0.00,47,Wunderground v.1.15,2013-01-07 20:06:00,
2013-01-07 15:12:00,69.6,64.2,30.16,NNE,32,7.0,7.0,83,0.00,,,0.00,42,Wunderground v.1.15,2013-01-07 20:12:00,
2013-01-07 15:18:00,69.6,64.5,30.16,NNW,348,6.0,11.0,84,0.00,,,0.00,58,Wunderground v.1.15,2013-01-07 20:18:00,
2013-01-07 15:24:00,69.6,64.2,30.16,NNE,24,6.0,7.0,83,0.00,,,0.00,54,Wunderground v.1.15,2013-01-07 20:24:00,
2013-01-07 15:26:00,69.6,64.5,30.15,NNE,22,6.0,7.0,84,0.00,,,0.00,54,Wunderground v.1.15,2013-01-07 20:26:00,
2013-01-07 15:32:00,69.7,64.3,30.16,North,360,6.0,7.0,83,0.00,,,0.00,46,Wunderground v.1.15,2013-01-07 20:32:00,
2013-01-07 15:38:00,69.6,64.5,30.16,North,5,6.0,13.0,84,0.00,,,0.00,47,Wunderground v.1.15,2013-01-07 20:38:00,
2013-01-07 15:44:00,69.6,64.5,30.16,NNW,335,5.0,7.0,84,0.00,,,0.00,53,Wunderground v.1.15,2013-01-07 20:44:00,
2013-01-07 15:50:00,69.7,64.6,30.16,North,5,5.0,5.0,84,0.00,,,0.00,40,Wunderground v.1.15,2013-01-07 20:50:00,
2013-01-07 15:56:00,69.7,65.0,30.16,NE,40,5.0,5.0,85,0.00,,,0.00,54,Wunderground v.1.15,2013-01-07 20:56:00,
2013-01-07 16:02:00,69.7,65.0,30.16,NNW,342,5.0,7.0,85,0.00,,,0.00,56,Wunderground v.1.15,2013-01-07 21:02:00,
2013-01-07 16:08:00,69.8,65.1,30.16,NNE,18,5.0,7.0,85,0.00,,,0.00,54,Wunderground v.1.15,2013-01-07 21:08:00,
2013-01-07 16:14:00,69.8,65.4,30.16,NNE,12,5.0,6.0,86,0.00,,,0.00,65,Wunderground v.1.15,2013-01-07 21:14:00,
2013-01-07 16:20:00,69.9,65.5,30.16,NNE,19,4.0,7.0,86,0.00,,,0.00,60,Wunderground v.1.15,2013-01-07 21:20:00,
2013-01-07 16:26:00,69.9,65.9,30.16,NNE,18,4.0,10.0,87,0.00,,,0.00,49,Wunderground v.1.15,2013-01-07 21:26:00,
2013-01-07 16:32:00,70.0,66.0,30.16,NNE,13,6.0,6.0,87,0.00,,,0.00,37,Wunderground v.1.15,2013-01-07 21:32:00,
2013-01-07 16:38:00,70.1,66.0,30.16,North,5,4.0,9.0,87,0.00,,,0.00,21,Wunderground v.1.15,2013-01-07 21:38:00,
2013-01-07 16:44:00,70.0,66.0,30.17,NNE,15,3.0,5.0,87,0.00,,,0.00,11,Wunderground v.1.15,2013-01-07 21:44:00,
2013-01-07 16:50:00,70.1,66.0,30.17,NE,34,4.0,4.0,87,0.00,,,0.00,11,Wunderground v.1.15,2013-01-07 21:50:00,
2013-01-07 16:56:00,70.2,65.8,30.17,NNE,33,4.0,9.0,86,0.00,,,0.00,7,Wunderground v.1.15,2013-01-07 21:56:00,
2013-01-07 17:02:00,70.4,65.7,30.17,NNE,16,4.0,4.0,85,0.00,,,0.00,7,Wunderground v.1.15,2013-01-07 22:02:00,
2013-01-07 17:08:00,70.4,65.7,30.17,NNE,28,4.0,5.0,85,0.00,,,0.00,0,Wunderground v.1.15,2013-01-07 22:08:00,
2013-01-07 17:14:00,70.4,65.3,30.18,NNE,30,5.0,10.0,84,0.00,,,0.00,0,Wunderground v.1.15,2013-01-07 22:14:00,
2013-01-07 17:20:00,70.4,65.3,30.17,NE,40,7.0,7.0,84,0.00,,,0.00,0,Wunderground v.1.15,2013-01-07 22:20:00,
2013-01-07 17:26:00,70.4,65.3,30.18,ENE,73,7.0,16.0,84,0.00,,,0.00,0,Wunderground v.1.15,2013-01-07 22:26:00,
2013-01-07 17:32:00,70.4,65.3,30.18,North,355,7.0,7.0,84,0.00,,,0.00,0,Wunderground v.1.15,2013-01-07 22:32:00,
2013-01-07 17:38:00,70.4,65.3,30.18,NNE,33,7.0,11.0,84,0.00,,,0.00,0,Wunderground v.1.15,2013-01-07 22:38:00,
2013-01-07 17:44:00,70.4,65.0,30.17,NE,45,8.0,8.0,83,0.00,,,0.00,0,Wunderground v.1.15,2013-01-07 22:44:00,
2013-01-07 17:50:00,70.4,65.0,30.17,NNE,25,7.0,7.0,83,0.00,,,0.00,0,Wunderground v.1.15,2013-01-07 22:50:00,
2013-01-07 17:56:00,70.4,65.0,30.18,NE,53,6.0,7.0,83,0.00,,,0.00,0,Wunderground v.1.15,2013-01-07 22:56:00,
2013-01-07 18:02:00,70.4,65.0,30.18,NNW,342,6.0,8.0,83,0.00,,,0.00,0,Wunderground v.1.15,2013-01-07 23:02:00,
2013-01-07 18:08:00,70.4,65.0,30.18,NE,48,6.0,9.0,83,0.00,,,0.00,0,Wunderground v.1.15,2013-01-07 23:08:00,
2013-01-07 18:14:00,70.4,65.0,30.18,ENE,62,7.0,10.0,83,0.00,,,0.00,0,Wunderground v.1.15,2013-01-07 23:14:00,
2013-01-07 18:20:00,70.4,64.6,30.18,NE,40,7.0,7.0,82,0.00,,,0.00,0,Wunderground v.1.15,2013-01-07 23:20:00,
2013-01-07 18:26:00,70.4,64.6,30.18,NNE,24,7.0,7.0,82,0.00,,,0.00,0,Wunderground v.1.15,2013-01-07 23:26:00,
2013-01-07 18:32:00,70.5,64.7,30.18,NE,46,7.0,13.0,82,0.00,,,0.00,0,Wunderground v.1.15,2013-01-07 23:32:00,
2013-01-07 18:38:00,70.6,65.2,30.18,NE,53,7.0,13.0,83,0.00,,,0.00,0,Wunderground v.1.15,2013-01-07 23:38:00,
2013-01-07 18:44:00,70.6,65.2,30.18,NE,56,7.0,7.0,83,0.00,,,0.00,0,Wunderground v.1.15,2013-01-07 23:44:00,
2013-01-07 18:50:00,70.6,64.8,30.19,ENE,57,7.0,7.0,82,0.00,,,0.00,0,Wunderground v.1.15,2013-01-07 23:50:00,
2013-01-07 18:56:00,70.7,65.3,30.19,NNE,31,6.0,11.0,83,0.00,,,0.00,0,Wunderground v.1.15,2013-01-07 23:56:00,
2013-01-07 19:02:00,70.7,64.9,30.19,NE,52,6.0,6.0,82,0.00,,,0.00,0,Wunderground v.1.15,2013-01-08 00:02:00,
2013-01-07 19:08:00,70.7,65.3,30.19,ENE,78,6.0,11.0,83,0.00,,,0.00,0,Wunderground v.1.15,2013-01-08 00:08:00,
2013-01-07 19:14:00,70.7,64.9,30.19,East,81,6.0,9.0,82,0.00,,,0.00,0,Wunderground v.1.15,2013-01-08 00:14:00,
2013-01-07 19:20:00,70.7,64.9,30.19,NNE,13,5.0,5.0,82,0.00,,,0.00,0,Wunderground v.1.15,2013-01-08 00:20:00,
2013-01-07 19:26:00,70.8,65.0,30.19,NNE,33,5.0,7.0,82,0.00,,,0.00,0,Wunderground v.1.15,2013-01-08 00:26:00,
2013-01-07 19:32:00,70.8,64.7,30.19,ENE,63,7.0,9.0,81,0.00,,,0.00,0,Wunderground v.1.15,2013-01-08 00:32:00,
2013-01-07 19:38:00,70.9,65.1,30.19,ENE,61,6.0,9.0,82,0.00,,,0.00,0,Wunderground v.1.15,2013-01-08 00:38:00,
2013-01-07 19:44:00,70.9,65.1,30.19,NE,49,6.0,7.0,82,0.00,,,0.00,0,Wunderground v.1.15,2013-01-08 00:44:00,
2013-01-07 19:50:00,71.0,65.2,30.20,NNE,29,6.0,6.0,82,0.00,,,0.00,0,Wunderground v.1.15,2013-01-08 00:50:00,
2013-01-07 19:56:00,71.0,65.2,30.20,NE,39,5.0,6.0,82,0.00,,,0.00,0,Wunderground v.1.15,2013-01-08 00:56:00,
2013-01-07 20:02:00,71.0,65.2,30.20,NE,51,5.0,6.0,82,0.00,,,0.00,0,Wunderground v.1.15,2013-01-08 01:02:00,
2013-01-07 20:08:00,71.0,65.2,30.20,ENE,78,6.0,6.0,82,0.00,,,0.00,0,Wunderground v.1.15,2013-01-08 01:08:00,
2013-01-07 20:14:00,71.0,65.6,30.20,NE,53,6.0,6.0,83,0.00,,,0.00,0,Wunderground v.1.15,2013-01-08 01:14:00,
2013-01-07 20:20:00,71.0,65.6,30.20,NE,45,5.0,5.0,83,0.00,,,0.00,0,Wunderground v.1.15,2013-01-08 01:20:00,
2013-01-07 20:26:00,71.0,65.6,30.20,NE,37,6.0,11.0,83,0.00,,,0.00,0,Wunderground v.1.15,2013-01-08 01:26:00,
2013-01-07 20:32:00,70.9,65.8,30.19,NE,51,6.0,6.0,84,0.00,,,0.00,0,Wunderground v.1.15,2013-01-08 01:32:00,
2013-01-07 20:38:00,70.9,65.5,30.19,ENE,58,7.0,11.0,83,0.00,,,0.00,0,Wunderground v.1.15,2013-01-08 01:38:00,
2013-01-07 20:44:00,71.0,65.6,30.19,NE,51,7.0,14.0,83,0.00,,,0.00,0,Wunderground v.1.15,2013-01-08 01:44:00,
2013-01-07 20:50:00,71.0,65.6,30.19,NE,39,7.0,7.0,83,0.00,,,0.00,0,Wunderground v.1.15,2013-01-08 01:50:00,
2013-01-07 20:56:00,71.0,65.6,30.19,NE,36,7.0,12.0,83,0.00,,,0.00,0,Wunderground v.1.15,2013-01-08 01:56:00,
2013-01-07 21:02:00,71.0,65.9,30.19,ENE,72,6.0,6.0,84,0.00,,,0.00,0,Wunderground v.1.15,2013-01-08 02:02:00,
2013-01-07 21:08:00,70.9,65.8,30.19,ENE,66,6.0,6.0,84,0.00,,,0.00,0,Wunderground v.1.15,2013-01-08 02:08:00,
2013-01-07 21:14:00,70.9,65.8,30.19,ENE,59,6.0,6.0,84,0.00,,,0.00,0,Wunderground v.1.15,2013-01-08 02:14:00,
2013-01-07 21:20:00,70.8,65.7,30.19,ENE,76,6.0,6.0,84,0.00,,,0.00,0,Wunderground v.1.15,2013-01-08 02:20:00,
2013-01-07 21:26:00,70.8,66.1,30.19,ENE,64,6.0,6.0,85,0.00,,,0.00,0,Wunderground v.1.15,2013-01-08 02:26:00,
2013-01-07 21:32:00,70.8,66.1,30.19,NE,47,5.0,6.0,85,0.00,,,0.00,0,Wunderground v.1.15,2013-01-08 02:32:00,
2013-01-07 21:38:00,70.7,66.3,30.19,NNE,32,5.0,9.0,86,0.00,,,0.00,0,Wunderground v.1.15,2013-01-08 02:38:00,
2013-01-07 21:44:00,70.7,66.0,30.19,ENE,76,6.0,10.0,85,0.00,,,0.00,0,Wunderground v.1.15,2013-01-08 02:44:00,
2013-01-07 21:50:00,70.8,66.4,30.19,ENE,69,6.0,6.0,86,0.00,,,0.00,0,Wunderground v.1.15,2013-01-08 02:50:00,
2013-01-07 21:56:00,70.7,66.3,30.19,ENE,78,6.0,8.0,86,0.00,,,0.00,0,Wunderground v.1.15,2013-01-08 02:56:00,
2013-01-07 22:02:00,70.7,66.3,30.19,ENE,67,6.0,6.0,86,0.00,,,0.00,0,Wunderground v.1.15,2013-01-08 03:02:00,
2013-01-07 22:08:00,70.7,66.3,30.19,ENE,74,5.0,7.0,86,0.00,,,0.00,0,Wunderground v.1.15,2013-01-08 03:08:00,
2013-01-07 22:14:00,70.8,66.4,30.19,ENE,65,7.0,7.0,86,0.00,,,0.00,0,Wunderground v.1.15,2013-01-08 03:14:00,
2013-01-07 22:20:00,70.8,66.4,30.19,ENE,61,7.0,9.0,86,0.00,,,0.00,0,Wunderground v.1.15,2013-01-08 03:20:00,
2013-01-07 22:26:00,70.8,66.4,30.19,NNE,22,7.0,9.0,86,0.00,,,0.00,0,Wunderground v.1.15,2013-01-08 03:26:00,
2013-01-07 22:32:00,70.9,66.5,30.19,NE,36,7.0,9.0,86,0.00,,,0.00,0,Wunderground v.1.15,2013-01-08 03:32:00,
2013-01-07 22:38:00,70.9,66.5,30.18,NE,42,6.0,9.0,86,0.00,,,0.00,0,Wunderground v.1.15,2013-01-08 03:38:00,
2013-01-07 22:44:00,70.9,66.5,30.18,ENE,72,5.0,10.0,86,0.00,,,0.00,0,Wunderground v.1.15,2013-01-08 03:44:00,
2013-01-07 22:50:00,71.0,66.6,30.18,ENE,65,6.0,6.0,86,0.00,,,0.00,0,Wunderground v.1.15,2013-01-08 03:50:00,
2013-01-07 22:56:00,71.0,66.3,30.18,ENE,59,6.0,10.0,85,0.00,,,0.00,0,Wunderground v.1.15,2013-01-08 03:56:00,
2013-01-07 23:02:00,71.1,66.7,30.18,East,85,6.0,6.0,86,0.00,,,0.00,0,Wunderground v.1.15,2013-01-08 04:02:00,
2013-01-07 23:08:00,71.0,66.9,30.18,ENE,59,6.0,12.0,87,0.00,,,0.00,0,Wunderground v.1.15,2013-01-08 04:08:00,
2013-01-07 23:14:00,71.0,66.9,30.18,ENE,70,6.0,9.0,87,0.00,,,0.00,0,Wunderground v.1.15,2013-01-08 04:14:00,
2013-01-07 23:20:00,71.0,66.6,30.18,NE,40,6.0,8.0,86,0.00,,,0.00,0,Wunderground v.1.15,2013-01-08 04:20:00,
2013-01-07 23:26:00,71.1,66.7,30.18,NE,51,6.0,10.0,86,0.00,,,0.00,0,Wunderground v.1.15,2013-01-08 04:26:00,
2013-01-07 23:32:00,71.2,67.1,30.18,ENE,65,5.0,11.0,87,0.00,,,0.00,0,Wunderground v.1.15,2013-01-08 04:32:00,
2013-01-07 23:38:00,71.2,67.1,30.18,ENE,63,5.0,11.0,87,0.00,,,0.00,0,Wunderground v.1.15,2013-01-08 04:38:00,
2013-01-07 23:44:00,71.1,67.4,30.18,ENE,67,4.0,5.0,88,0.00,,,0.00,0,Wunderground v.1.15,2013-01-08 04:44:00,
2013-01-07 23:50:00,71.1,67.4,30.18,East,79,3.0,3.0,88,0.00,,,0.00,0,Wunderground v.1.15,2013-01-08 04:50:00,
2013-01-07 23:56:00,71.1,67.4,30.17,NE,55,4.0,7.0,88,0.00,,,0.00,0,Wunderground v.1.15,2013-01-08 04:56:00,